AirNav   Everest Fuels
 
 1287 users online  

KMCZ Martin County Airport
Williamston, North Carolina, USA

GOING TO WILLIAMSTON?


FAA INFORMATION EFFECTIVE 10 SEPTEMBER 2020

Location

FAA Identifier: MCZ
Lat/Long: 35-51-43.8950N 077-10-41.5300W
35-51.731583N 077-10.692167W
35.8621931,-77.1782028
(estimated)
Elevation: 74.8 ft. / 22.8 m (surveyed)
Variation: 09W (1990)
From city: 6 miles W of WILLIAMSTON, NC
Time zone: UTC -4 (UTC -5 during Standard Time)
Zip code: 27892

Airport Operations

Airport use: Open to the public
Control tower: no
ARTCC: WASHINGTON CENTER
FSS: RALEIGH FLIGHT SERVICE STATION
NOTAMs facility: RDU (NOTAM-D service available)
Attendance: 0800-1700
FOR SVC AFT HRS CALL 252-799-8718 OR 252-217-4023.
Wind indicator: lighted
Segmented circle: yes
Lights: PAPI 3, 21 OPR CONT. MIRL RY 03/21 DUSK TO DAWN; TO CHANGE INTENSITY OF MIRL RY 03/21 - CTAF.
Beacon: white-green (lighted land airport)
Operates sunset to sunrise.

Airport Communications

CTAF/UNICOM: 122.8
WX AWOS-3 at PGV (17 nm SW): 128.425 (252-758-6485)
WX AWOS-3P at ETC (18 nm W): 119.575 (252-641-1640)
WX AWOS-3 at OCW (19 nm S): 120.175 (252-975-6133)
  • APCH/DEP SVC PRVDD BY WASHINGTON ARTCC ON FREQS 123.85/279.65 (ROCKY MOUNT RCAG).

Nearby radio navigation aids

VOR radial/distance  VOR name  Freq  Var
TYIr110/26.4TAR RIVER VORTAC117.8005W
CVIr215/34.1COFIELD VORTAC114.6009W
ISOr037/34.8KINSTON VORTAC109.6005W

 
NDB name  Hdg/Dist  Freq  Var  ID
ALWOOD054/13.323009WAQE .- --.- .
CHOCOWINITY359/21.438808WRNW .-. -. .--

Airport Services

Fuel available: 100LL JET-A1
100LL AND JET-A HAS 24 HR SELF-SVC WITH CC.
Parking: hangars and tiedowns
Airframe service: NONE
Powerplant service: NONE
Bottled oxygen: NONE
Bulk oxygen: NONE

Runway Information

Runway 3/21

Dimensions: 5000 x 75 ft. / 1524 x 23 m
Surface: asphalt, in good condition
Weight bearing capacity: 
Single wheel: 21.0
Runway edge lights: medium intensity
RUNWAY 3  RUNWAY 21
Latitude: 35-51.354402N35-52.108727N
Longitude: 077-10.895800W077-10.488250W
Elevation: 64.7 ft.74.4 ft.
Traffic pattern: leftleft
Runway heading: 033 magnetic, 024 true213 magnetic, 204 true
Markings: nonprecision, in fair conditionnonprecision, in fair condition
Visual slope indicator: 2-light PAPI on left (3.00 degrees glide path)2-light PAPI on left (3.00 degrees glide path)
Touchdown point: yes, no lightsyes, no lights
Obstructions: 16 ft. road, 426 ft. from runway, 269 ft. right of centerline, 14:1 slope to clear15 ft. road, 587 ft. from runway, 242 ft. left of centerline, 25:1 slope to clear

Airport Ownership and Management from official FAA records

Ownership: Publicly-owned
Owner: COUNTY OF MARTIN
305 E. MAIN STREET, PO BOX 668
WILLIAMSTON, NC 27892
Phone 252-789-4300
Manager: JESSE COUNCIL, JULIET CHARLIE AVIAT
2135 AIRPORT RD
WILLIAMSTON, NC 27892
Phone 252-792-1971

Airport Operational Statistics

Aircraft based on the field: 14
Single engine airplanes: 13
Helicopters: 1
    
Aircraft operations: avg 34/day *
56% local general aviation
40% transient general aviation
4% military
* for 12-month period ending 27 August 2018

Additional Remarks

DEER ON AND INVOF ARPT.
FOR CD CTC WASHINGTON ARTCC AT 703-771-3587.

Instrument Procedures

NOTE: All procedures below are presented as PDF files. If you need a reader for these files, you should download the free Adobe Reader.

NOT FOR NAVIGATION. Please procure official charts for flight.
FAA instrument procedures published for use from 10 September 2020 at 0901Z to 08 October 2020 at 0900z.

 
IAPs - Instrument Approach Procedures
RNAV (GPS) RWY 03   download (223KB)
RNAV (GPS) RWY 21   download (210KB)
NOTE: Special Take-Off Minimums/Departure Procedures apply   download (141KB)

Other nearby airports with instrument procedures:

KPGV - Pitt-Greenville Airport (17 nm SW)
KETC - Tarboro-Edgecombe Airport (18 nm W)
KOCW - Washington-Warren Airport (19 nm S)
KPMZ - Plymouth Municipal Airport (21 nm E)
KASJ - Tri-County Airport (26 nm N)
 
Loc | Ops | Rwys | IFR | FBO | Links
Com | Nav | Svcs | Stats | Notes
Area around KMCZ (Martin County Airport)
 
Road maps at: MapQuest Bing Google
 
Aerial photo
WARNING: Photo may not be current or correct
Aerial photo of KMCZ (Martin County Airport)
Photo by David Newcomer
Photo taken 14-Mar-2012
from 5,500' altitude looking north.

Do you have a better or more recent aerial photo of Martin County Airport that you would like to share? If so, please send us your photo.

 
Sectional chart

 
Airport distance calculator
Flying to Martin County Airport? Find the distance to fly.

From to KMCZ

Sunrise and sunset
Times for 27-Sep-2020
 Local
(UTC-4)
 Zulu
(UTC)
Morning civil twilight06:3710:37
Sunrise07:0211:02
Sunset18:5622:56
Evening civil twilight19:2223:22

Current date and time
Zulu (UTC)  27-Sep-2020 17:18:58
Local (UTC-4)  27-Sep-2020 13:18:58
 
METAR
KPGV 
18nm SW 
271655Z AUTO 33004KT 10SM OVC033 23/18 A3002 RMK AO2
KETC 
18nm W 
271655Z AUTO 00000KT 10SM SCT025 OVC036 23/18 A3000 RMK AO2 T02300176
KOCW 
19nm S 
271655Z AUTO 32003KT 10SM OVC029 23/18 A3000 RMK AO2 T02340175
KASJ 
25nm N 
271655Z AUTO 27003KT 10SM BKN020 BKN031 OVC039 23/19 A2999 RMK AO2 T02290189
KEDE 
31nm E 
271655Z AUTO 21005KT 10SM OVC028 24/20 A3000 RMK AO2 T02440203
KRWI 
35nm W 
271653Z AUTO 19003KT 10SM FEW027 OVC034 23/17 A3000 RMK AO2 SLP159 T02330167
KIXA 
36nm NW 
271655Z AUTO 00000KT 10SM SCT016 BKN020 OVC033 21/19 A3000 RMK AO2
TAF
KPGV 
18nm SW 
271125Z 2712/2812 00000KT 1/2SM FG OVC002 FM271300 30003KT P6SM OVC006 FM271500 28004KT P6SM BKN020 FM271800 24004KT P6SM BKN040 AMD LTD TO CLD VIS AND WIND
NOTAMs
Click for the latest NOTAMs
NOTAMs are issued by the DoD/FAA and will open in a separate window not controlled by AirNav.

 

 
 

FBO, Fuel Providers, and Aircraft Ground Support

  
 Business Name 
 
 Contact 
 
 Services / Description 
 
Fuel Prices
 
Comments
  
 Juliet Charlie Aviation
252-792-1971
252-799-8718
[email]
Aviation fuel, Aircraft parking (ramp or tiedown), Hangars, Pilots lounge / snooze room, Internet access

More info about Juliet Charlie Aviation
Shell
100LL Jet A
AS --- $3.55 
SS $4.22 --- 
 Updated 09-Sep-2020
 
   3 read write
AS=Assisted/Self Service
SS=Self service
Update Fuel Prices
 

Would you like to see your business listed on this page?

 If your business provides an interesting product or service to pilots, flight crews, aircraft, or users of the Martin County Airport, you should consider listing it here.  To start the listing process, click on the button below
 
Add a business
 

Other Pages about Martin County Airport

Update a link
 
Copyright © AirNav, LLC. All rights reserved. Privacy Policy  Contact